| time (UTC) | temp C | wind direction | speed KPH | gust KPH | rain 1hr cm | rain 24hr cm | rain mn cm | humidity % | barometer mb |
| 20260505013918 | 23 | 88 | 9.7 | 19.3 | 0.00 | 0.00 | 0.00 | 71 | 1015.8 |
| 20260505012931 | 23 | 69 | 8.0 | 19.3 | 0.00 | 0.00 | 0.00 | 71 | 1015.9 |
| 20260505011909 | 23 | 32 | 9.7 | 19.3 | 0.00 | 0.00 | 0.00 | 70 | 1015.9 |
| 20260505004542 | 23 | 84 | 9.7 | 22.5 | 0.00 | 0.00 | 0.00 | 70 | 1015.1 |
| 20260505003556 | 23 | 33 | 9.7 | 19.3 | 0.00 | 0.00 | 0.00 | 70 | 1015.2 |
| 20260505002525 | 23 | 77 | 8.0 | 19.3 | 0.00 | 0.00 | 0.00 | 70 | 1015.3 |
| 20260505001524 | 23 | 84 | 11.3 | 22.5 | 0.00 | 0.00 | 0.00 | 70 | 1015.2 |
| 20260505000516 | 23 | 69 | 9.7 | 22.5 | 0.00 | 0.00 | 0.00 | 70 | 1015.0 |
| 20260504235536 | 23 | 80 | 9.7 | 25.7 | 0.00 | 0.00 | 0.00 | 69 | 1014.9 |
| 20260504234527 | 23 | 45 | 11.3 | 25.7 | 0.00 | 0.00 | 0.00 | 70 | 1014.8 |
| 20260504233531 | 23 | 40 | 11.3 | 22.5 | 0.00 | 0.00 | 0.00 | 70 | 1014.7 |
| 20260504232503 | 23 | 94 | 9.7 | 24.1 | 0.00 | 0.00 | 0.00 | 70 | 1014.9 |
| 20260504231522 | 23 | 80 | 9.7 | 24.1 | 0.00 | 0.00 | 0.00 | 69 | 1014.8 |
| 20260504230522 | 23 | 67 | 11.3 | 22.5 | 0.00 | 0.00 | 0.00 | 70 | 1014.9 |
| 20260504225510 | 23 | 94 | 11.3 | 22.5 | 0.00 | 0.00 | 0.00 | 70 | 1014.9 |
| 20260504224442 | 23 | 98 | 11.3 | 22.5 | 0.00 | 0.00 | 0.00 | 69 | 1014.8 |
| 20260504223427 | 23 | 61 | 9.7 | 22.5 | 0.00 | 0.00 | 0.00 | 69 | 1014.7 |
| 20260504222412 | 24 | 68 | 11.3 | 24.1 | 0.00 | 0.00 | 0.00 | 68 | 1014.7 |
| 20260504221350 | 24 | 94 | 11.3 | 25.7 | 0.00 | 0.00 | 0.00 | 68 | 1014.7 |
| 20260504220402 | 24 | 77 | 9.7 | 27.4 | 0.00 | 0.00 | 0.00 | 68 | 1014.7 |
| 20260504215346 | 24 | 104 | 11.3 | 27.4 | 0.00 | 0.00 | 0.00 | 69 | 1014.8 |
| 20260504214351 | 24 | 68 | 11.3 | 25.7 | 0.00 | 0.00 | 0.00 | 69 | 1014.8 |
| 20260504212223 | 24 | 59 | 11.3 | 27.4 | 0.00 | 0.00 | 0.00 | 68 | 1015.0 |
| 20260504210042 | 24 | 96 | 11.3 | 24.1 | 0.00 | 0.00 | 0.00 | 67 | 1015.1 |
| 20260504205052 | 25 | 49 | 12.9 | 24.1 | 0.00 | 0.00 | 0.00 | 66 | 1015.1 |
| 20260504204043 | 25 | 79 | 12.9 | 25.7 | 0.00 | 0.00 | 0.00 | 66 | 1015.1 |
| 20260504201913 | 24 | 102 | 12.9 | 27.4 | 0.00 | 0.00 | 0.00 | 66 | 1015.3 |
| 20260504195652 | 24 | 38 | 11.3 | 24.1 | 0.00 | 0.00 | 0.00 | 67 | 1015.3 |
| 20260504194631 | 24 | 65 | 12.9 | 24.1 | 0.00 | 0.00 | 0.00 | 66 | 1015.5 |
| 20260504193628 | 24 | 51 | 11.3 | 27.4 | 0.00 | 0.00 | 0.00 | 67 | 1015.8 |
| 20260504192634 | 25 | 39 | 12.9 | 27.4 | 0.00 | 0.00 | 0.00 | 66 | 1016.0 |
| 20260504191613 | 25 | 51 | 12.9 | 24.1 | 0.00 | 0.00 | 0.00 | 65 | 1016.0 |
| 20260504190538 | 25 | 65 | 14.5 | 30.6 | 0.00 | 0.00 | 0.00 | 64 | 1016.1 |
| 20260504185506 | 25 | 46 | 12.9 | 27.4 | 0.00 | 0.00 | 0.00 | 66 | 1016.2 |
| 20260504183251 | 25 | 80 | 14.5 | 29.0 | 0.00 | 0.00 | 0.00 | 65 | 1016.3 |
| 20260504182227 | 26 | 84 | 11.3 | 29.0 | 0.00 | 0.00 | 0.00 | 65 | 1016.4 |
| 20260504180010 | 26 | 49 | 11.3 | 29.0 | 0.00 | 0.00 | 0.00 | 63 | 1016.5 |
| 20260504175019 | 25 | 16 | 14.5 | 29.0 | 0.00 | 0.00 | 0.00 | 64 | 1016.6 |
| 20260504172921 | 25 | 60 | 14.5 | 25.7 | 0.00 | 0.00 | 0.00 | 64 | 1016.7 |
| 20260504171912 | 25 | 49 | 12.9 | 27.4 | 0.00 | 0.00 | 0.00 | 65 | 1016.7 |
| 20260504170907 | 25 | 43 | 12.9 | 27.4 | 0.00 | 0.00 | 0.00 | 64 | 1016.8 |
| 20260504150607 | 25 | 25 | 14.5 | 29.0 | 0.00 | 0.00 | 0.00 | 63 | 1017.2 |
| 20260504140501 | 24 | 86 | 14.5 | 30.6 | 0.00 | 0.00 | 0.00 | 65 | 1016.6 |
| 20260504130326 | 24 | 5 | 12.9 | 24.1 | 0.00 | 0.00 | 0.00 | 65 | 1016.0 |
| 20260504120302 | 24 | 43 | 12.9 | 25.7 | 0.00 | 0.00 | 0.00 | 64 | 1015.4 |
| 20260504110137 | 23 | 355 | 16.1 | 29.0 | 0.00 | 0.00 | 0.00 | 67 | 1014.9 |
| 20260504081755 | 23 | 22 | 9.7 | 24.1 | 0.00 | 0.08 | 0.00 | 70 | 1014.3 |
| 20260504080746 | 23 | 39 | 11.3 | 22.5 | 0.00 | 0.08 | 0.00 | 69 | 1014.1 |
| 20260504050400 | 23 | 35 | 9.7 | 20.9 | 0.00 | 0.08 | 0.00 | 69 | 1015.8 |
| 20260504045346 | 23 | 32 | 9.7 | 20.9 | 0.00 | 0.08 | 0.00 | 69 | 1015.7 |
| 20260504044404 | 23 | 86 | 8.0 | 20.9 | 0.00 | 0.08 | 0.00 | 69 | 1015.9 |
| 20260504043402 | 23 | 34 | 8.0 | 19.3 | 0.00 | 0.08 | 0.00 | 69 | 1016.1 |
| 20260504042348 | 23 | 71 | 8.0 | 19.3 | 0.00 | 0.08 | 0.00 | 69 | 1016.0 |
| 20260504041411 | 23 | 64 | 8.0 | 19.3 | 0.00 | 0.08 | 0.00 | 69 | 1016.1 |
| 20260504040406 | 23 | 61 | 9.7 | 20.9 | 0.00 | 0.08 | 0.00 | 69 | 1016.0 |
| 20260504035346 | 23 | 40 | 9.7 | 20.9 | 0.00 | 0.08 | 0.08 | 70 | 1016.3 |
| 20260504034401 | 23 | 56 | 9.7 | 22.5 | 0.00 | 0.08 | 0.08 | 69 | 1016.4 |
| 20260504033401 | 23 | 49 | 11.3 | 22.5 | 0.00 | 0.08 | 0.08 | 69 | 1016.5 |
| 20260504032422 | 23 | 109 | 9.7 | 20.9 | 0.00 | 0.08 | 0.08 | 69 | 1016.4 |
| 20260504031400 | 23 | 18 | 11.3 | 25.7 | 0.00 | 0.08 | 0.08 | 69 | 1016.4 |
| 20260504025251 | 23 | 94 | 9.7 | 24.1 | 0.00 | 0.08 | 0.08 | 69 | 1016.4 |
| 20260504024302 | 23 | 81 | 11.3 | 22.5 | 0.00 | 0.08 | 0.08 | 70 | 1016.3 |
| 20260504023259 | 23 | 59 | 11.3 | 22.5 | 0.00 | 0.08 | 0.08 | 70 | 1016.2 |
| 20260504022318 | 23 | 35 | 9.7 | 22.5 | 0.00 | 0.08 | 0.08 | 69 | 1016.2 |
| 20260504021322 | 23 | 68 | 11.3 | 22.5 | 0.00 | 0.08 | 0.08 | 69 | 1016.4 |
| 20260504020327 | 23 | 98 | 9.7 | 29.0 | 0.00 | 0.08 | 0.08 | 69 | 1016.3 |
| 20260504015251 | 23 | 41 | 12.9 | 29.0 | 0.00 | 0.08 | 0.08 | 69 | 1016.2 |